This demonstration page uses our WeatherBlox Daily Observations layout. Learn more.

Left ArrowRight Arrow

41.55636, -103.73856

Hourly Observations for February 21, 2020

Temp ( °F °C ) Dew Point ( °F °C ) Humidity (%) Winds ( mph kmh ) Pressure ( in mb ) Visibility ( mi km ) Precip ( " mm )
12:58 am 00:58 Clear 30 -0.9 15 -9.7 52 52 SSW 17 28 30.56 1035 10 16 N/A
1:58 am 01:58 Clear 28 -2.2 13 -10.5 53 53 SSW 18 30 30.58 1036 10 16 N/A
2:58 am 02:58 Clear 26 -3.4 12 -11.2 55 55 SW 18 30 30.56 1035 10 16 N/A
3:58 am 03:58 Clear 24 -4.4 11 -11.6 58 58 SSW 15 24 30.55 1035 10 16 N/A
4:58 am 04:58 Clear 26 -3.6 8 -13.1 48 48 WSW 9 15 30.53 1034 10 16 N/A
5:58 am 05:58 Clear 29 -1.6 1 -17 30 30 SSW 6 9 30.47 1032 10 16 N/A
6:58 am 06:58 Clear 31 -0.4 3 -16.1 30 30 W 5 7 30.42 1030 10 16 N/A
7:58 am 07:58 Clear 31 -0.7 2 -16.8 29 29 W 5 7 30.40 1030 10 16 N/A
8:58 am 08:58 Clear 27 -2.8 6 -14.6 40 40 NW 6 9 30.38 1029 10 16 N/A
9:58 am 09:58 Clear 26 -3.3 4 -15.7 38 38 N N/A 30.35 1028 10 16 N/A
10:58 am 10:58 Clear 26 -3.1 2 -16.5 35 35 WNW 6 9 30.34 1027 10 16 N/A
11:58 am 11:58 Clear 25 -3.9 2 -16.5 37 37 WSW 6 9 30.36 1028 10 16 N/A
12:58 pm 12:58 Clear 25 -4 1 -17 36 36 WSW 7 11 30.37 1029 10 16 N/A
1:58 pm 13:58 Sunny 25 -4.1 3 -16.2 39 39 WSW 10 17 30.37 1028 10 16 N/A
2:58 pm 14:58 Sunny 26 -3.6 8 -13.4 47 47 WNW 3 6 30.41 1030 10 16 N/A
3:58 pm 15:58 Sunny 39 3.7 8 -13.5 27 27 W 8 13 30.37 1029 10 16 N/A
4:58 pm 16:58 Sunny 44 6.5 -4 -20.2 13 13 W 15 24 30.34 1027 10 16 N/A
5:58 pm 17:58 Sunny 46 7.9 -2 -18.9 13 13 WNW 13 20 30.32 1027 10 16 N/A
6:58 pm 18:58 Sunny 48 9 1 -17.2 14 14 WNW 18 30 30.28 1026 10 16 N/A
7:58 pm 19:58 Sunny 50 10.2 1 -17 13 13 NW 9 15 30.23 1024 10 16 N/A
8:58 pm 20:58 Sunny 53 11.9 -1 -18.5 10 10 NW 16 26 30.21 1023 10 16 N/A
9:58 pm 21:58 Sunny 54 12.3 2 -16.9 11 11 NW 15 24 30.19 1022 10 16 N/A
10:58 pm 22:58 Sunny 52 11.2 4 -15.5 14 14 NW 16 26 30.19 1022 10 16 N/A
11:58 pm 23:58 Sunny 47 8.6 7 -13.7 19 19 N N/A 30.20 1023 10 16 N/A

Powered by AerisWeather